Location: Caltech
(34.1382°N, 118.1253°W)
Time: 15:09:57
(UTC-07:00)

Cosmos 2251 Rocket - Visible Passes

Search period start: 22 May 2015 00:00
Search period end: 01 June 2015 00:00
Orbit: 765 x 793 km, 74.0° (Epoch: 22 May)

Date Brightness Start Highest point End Pass type
(mag) Time Alt. Az. Time Alt. Az. Time Alt. Az.
22 May 6.0 03:20:27 10° NNE 03:24:26 21° ENE 03:28:34 10° ESE visible
22 May 4.0 05:01:55 10° NNW 05:06:56 40° WSW 05:11:53 10° S visible
23 May 6.4 02:47:56 10° NNE 02:50:19 13° ENE 02:53:00 10° E visible
23 May 3.5 04:27:55 10° NNW 04:33:16 68° WSW 04:38:35 10° S visible
24 May 3.7 03:54:09 10° NNW 03:59:31 73° ENE 04:04:53 10° SSE visible
25 May 4.6 03:20:35 10° N 03:25:42 44° ENE 03:30:50 10° SE visible
25 May 4.9 05:04:00 10° NW 05:07:42 18° W 05:11:12 10° SW visible
26 May 5.4 02:47:17 10° N 02:51:46 27° ENE 02:56:22 10° ESE visible
26 May 4.3 04:29:23 10° NW 04:34:05 31° W 04:38:03 13° SSW visible
27 May 6.1 02:14:22 10° NNE 02:17:44 17° ENE 02:21:19 10° ESE visible
27 May 3.7 03:55:13 10° NNW 04:00:26 51° WSW 04:03:15 26° SSW visible
28 May 6.4 01:42:53 10° NE 01:43:34 10° NE 01:44:38 10° ENE visible
28 May 3.4 03:21:20 10° NNW 03:26:45 86° WSW 03:28:47 39° SSE visible
29 May 4.0 02:47:40 10° N 02:52:57 57° ENE 02:54:35 41° SE visible
29 May 5.2 04:32:01 10° WNW 04:34:49 14° W 04:35:00 14° W visible
30 May 4.9 02:14:12 10° N 02:19:05 35° ENE 02:20:32 30° E visible
30 May 4.7 03:56:57 10° NW 04:00:58 23° W 04:00:58 23° W visible
31 May 5.5 01:41:03 10° NNE 01:45:06 22° ENE 01:46:37 20° E visible
31 May 4.2 03:22:36 10° NNW 03:27:04 38° W 03:27:04 38° W visible
